Wetbulb
63.98 69.32 70.72 70.57 69.44 68.87 68.24 67.92 68.28 69.23 69.05 69.27 69.10 69.33 69.30 68.74 68.15 68.72 68.22 67.55 67.28 67.47 67.05 66.62 66.19 66.50 66.70 66.93 66.89 66.88 67.29 67.19 67.04 66.84 66.46 66.48 66.58 66.66 66.72 66.72 66.46 66.37 67.76
65.69 70.22 69.93 70.43 69.48 68.35 67.70 67.31 67.85 68.54 68.04 68.29 68.52 68.49 68.80 68.19 67.82 67.50 67.45 67.37 67.75 67.18 66.72 65.80 65.89 66.11 66.11 65.97 65.91 65.86 65.79 66.19 66.62 66.99 67.05 67.36 67.54 67.80 67.85 67.49 67.38 67.89 68.39
67.71 69.84 69.62 69.44 69.49 69.02 68.61 68.04 68.03 67.56 67.35 67.47 67.13 67.87 68.54 67.91 67.23 66.96 66.99 67.49 67.37 66.89 66.08 65.65 65.74 66.17 65.93 65.90 65.90 65.91 65.85 65.84 66.07 65.90 65.61 66.60 67.17 68.22 68.88 68.55 68.38 68.46 68.36
68.80 69.27 68.86 68.21 69.02 68.82 68.13 67.38 67.71 68.04 67.30 67.15 67.48 67.16 67.51 67.29 66.76 66.56 67.07 67.57 67.01 66.11 65.88 65.92 66.21 66.06 66.08 66.06 66.49 66.20 66.00 65.44 64.77 63.65 64.77 65.93 67.00 68.87 69.07 68.17 67.48 66.84 66.44
68.34 68.11 67.64 68.03 68.93 68.40 67.74 67.50 67.44 67.56 67.64 66.55 66.59 67.04 66.39 66.55 66.85 66.38 67.22 66.95 66.39 65.80 65.59 66.10 65.96 66.22 66.08 66.75 66.95 66.35 65.93 65.04 65.05 65.64 65.10 64.90 67.10 67.65 67.62 66.43 65.39 64.68 64.05
67.60 67.39 67.24 68.26 68.63 68.17 67.62 67.47 67.18 67.24 67.08 66.51 67.65 67.08 67.42 66.58 67.47 67.35 67.06 66.88 65.74 65.98 65.86 65.62 66.27 66.49 66.65 66.70 67.06 66.22 65.45 65.55 65.09 67.02 66.69 66.57 66.28 67.33 66.74 65.25 64.11 63.09 62.39
67.00 67.23 67.29 67.83 68.05 67.90 67.77 67.63 67.38 67.40 66.41 67.71 67.91 67.52 67.52 68.22 68.21 67.03 66.62 65.25 66.68 67.12 66.69 66.08 66.34 66.07 66.10 66.44 65.99 65.41 65.19 64.70 66.39 66.49 66.45 66.34 65.88 66.26 65.49 64.25 62.92 61.89 61.42
66.55 67.05 67.29 65.83 66.85 67.16 67.17 67.46 66.77 66.50 67.12 67.06 67.88 67.47 68.07 67.93 67.40 66.54 65.66 67.00 67.65 67.27 66.47 66.48 66.12 65.47 65.83 65.53 65.30 65.27 64.51 63.96 65.08 65.95 65.70 65.60 65.71 65.43 64.42 63.25 61.84 61.04 60.58
66.75 66.91 67.21 67.42 66.66 64.99 65.70 66.03 65.72 66.25 66.67 66.72 67.32 67.00 67.41 66.15 65.82 66.14 66.52 67.67 68.01 67.28 66.74 66.26 65.21 65.42 65.62 65.11 64.94 64.00 63.06 62.56 65.50 65.42 64.56 64.77 65.09 65.17 64.23 62.79 61.28 60.41 59.74
66.45 66.81 67.03 67.39 67.27 66.83 66.18 63.69 64.04 64.40 64.66 66.01 65.90 65.44 63.76 63.18 64.06 65.40 64.73 66.69 67.63 67.18 65.83 64.55 64.95 64.64 64.40 64.32 63.19 61.94 61.38 62.17 64.06 63.83 64.14 64.57 64.79 64.65 63.60 62.01 60.73 59.70 59.23
65.46 66.22 66.95 66.72 66.73 66.33 65.89 63.79 62.74 63.07 63.06 63.68 63.64 62.31 60.53 62.73 64.19 63.58 62.68 65.36 66.98 66.50 64.54 64.42 64.66 63.51 61.80 60.86 60.05 59.13 59.59 62.37 62.08 63.13 64.23 63.63 64.11 63.83 62.33 61.32 60.06 59.21 58.67
62.56 64.48 66.03 66.39 66.35 66.10 65.76 65.20 64.96 65.28 64.68 63.96 64.35 63.32 62.49 62.81 64.09 62.93 61.72 62.82 64.52 64.23 64.01 64.67 62.85 60.09 58.54 59.04 58.36 57.77 59.18 60.00 59.95 60.81 63.52 63.34 63.44 62.73 61.84 60.57 59.39 58.75 58.01
62.61 63.84 65.17 65.81 66.37 66.35 66.04 65.47 64.52 64.29 64.15 63.53 63.55 62.99 62.57 62.29 62.88 63.35 64.49 65.01 64.96 61.29 63.34 62.32 59.41 58.19 57.28 57.12 56.43 56.44 56.87 58.25 59.42 57.15 58.98 61.99 62.02 61.51 61.06 60.18 59.31 58.50 57.63
61.71 63.05 64.48 65.29 65.83 66.05 66.50 65.37 64.67 64.17 63.36 62.62 62.53 62.26 62.03 61.99 62.49 62.46 63.29 63.51 62.67 61.01 60.44 58.16 57.17 55.82 54.84 54.19 54.21 53.62 54.22 55.93 56.27 54.40 55.39 58.70 60.84 60.65 60.49 60.02 58.89 57.78 56.80
61.10 62.13 63.30 64.56 64.93 65.75 65.87 65.70 64.93 64.24 63.61 62.21 62.20 62.22 62.49 61.79 61.31 61.39 62.02 61.82 61.14 57.31 57.77 56.03 55.34 53.89 52.70 51.63 50.93 50.77 50.15 51.27 51.20 49.90 51.49 55.46 59.04 59.83 59.86 59.50 58.26 56.94 56.08
61.22 62.02 62.81 63.58 64.36 64.78 65.35 65.41 64.78 64.88 63.66 62.08 61.92 61.90 61.76 61.45 60.60 60.33 60.67 60.86 58.22 55.99 55.23 54.88 54.03 52.58 50.82 49.36 46.98 46.07 46.26 47.17 46.40 45.87 46.36 48.90 55.84 57.39 57.46 57.49 56.77 56.12 55.63
60.77 61.98 62.38 62.93 63.78 63.80 64.18 65.13 64.88 64.41 63.83 61.90 61.30 62.26 61.60 61.20 59.79 59.45 59.75 59.79 57.16 54.37 52.71 52.62 51.28 49.90 47.83 46.06 44.04 43.75 43.94 44.20 43.31 43.00 43.75 44.09 46.68 52.52 53.78 54.66 54.27 53.98 53.61
60.14 61.66 62.27 62.98 62.78 63.17 63.36 63.99 64.67 64.79 63.64 62.47 61.56 61.65 61.28 60.74 59.68 59.28 58.52 59.15 54.78 52.49 51.31 51.08 50.02 47.71 44.96 42.96 41.84 41.10 40.45 40.50 40.57 40.40 40.59 41.42 41.54 43.37 48.58 50.47 50.88 51.10 51.48
57.10 61.39 62.06 62.82 62.64 62.71 63.00 63.06 63.90 64.57 63.40 63.16 62.06 61.13 61.03 60.07 59.07 58.78 58.23 57.43 54.44 51.04 50.17 49.88 48.94 47.79 42.10 40.31 38.77 37.72 37.41 37.42 38.32 38.54 37.93 37.86 38.78 38.07 39.24 44.79 46.48 47.12 48.20
49.64 59.85 62.26 62.65 63.09 63.22 62.84 62.50 62.69 63.31 63.31 63.08 62.01 61.48 60.50 60.05 59.05 58.84 58.00 56.60 53.68 50.17 48.63 48.89 47.69 45.38 42.63 39.75 37.99 35.66 35.28 35.46 35.46 35.06 34.86 34.99 34.89 34.01 34.22 34.12 35.01 39.98 44.82
45.80 50.77 59.56 61.70 62.65 63.21 62.46 61.22 60.83 60.13 61.94 61.93 62.15 61.59 60.76 60.06 58.63 58.31 57.58 55.22 54.12 50.40 47.84 47.41 46.29 42.31 40.83 38.12 35.38 33.64 33.68 33.84 33.43 33.37 33.97 33.25 32.34 31.95 32.07 32.27 32.36 33.49 36.85
43.30 44.85 45.95 57.54 61.99 62.82 63.07 62.70 61.85 60.99 61.17 61.63 61.68 61.01 60.49 59.80 58.80 57.94 56.80 54.70 53.47 50.40 46.74 46.77 45.16 41.89 39.86 40.25 36.50 34.71 29.81 31.42 32.78 33.07 33.11 32.01 31.39 31.45 30.56 31.20 32.08 33.27 34.42
41.84 42.87 44.30 45.38 49.28 62.20 63.01 62.94 62.01 59.71 55.60 56.27 59.18 58.68 58.29 58.94 58.43 57.60 56.67 53.30 52.29 48.63 45.66 45.73 45.53 43.87 39.58 40.44 40.42 38.79 32.73 31.61 30.80 34.00 31.74 31.41 30.87 30.23 31.04 31.69 31.48 31.62 32.13
41.66 43.08 42.92 43.94 45.55 54.58 62.44 62.04 57.81 57.13 55.71 57.83 57.00 57.42 57.01 57.74 57.82 57.27 55.39 51.99 51.42 48.71 46.84 45.57 45.97 44.68 42.87 39.43 39.02 40.30 39.56 35.88 33.17 28.52 33.61 31.85 31.43 30.16 30.66 31.37 30.56 30.50 31.10
41.60 41.41 42.61 42.56 44.00 48.99 59.68 61.75 58.77 58.98 59.18 58.14 54.48 51.37 50.71 52.06 55.07 53.21 51.70 51.05 50.59 48.46 46.46 45.35 43.58 42.77 42.89 39.63 39.44 38.00 37.85 37.49 37.74 33.91 29.14 29.72 31.92 31.57 31.22 30.49 30.33 30.24 30.35
40.31 40.73 41.34 41.44 42.46 46.34 56.84 60.29 58.86 59.11 56.56 49.84 49.33 48.43 46.85 48.17 48.62 49.47 48.76 48.60 47.74 45.95 44.19 43.48 43.69 42.24 40.78 40.79 39.43 39.09 38.14 37.82 35.92 33.88 31.04 30.45 31.05 30.73 30.19 30.14 29.76 29.82 29.92
MSLP
1012.00 1012.00 1012.47 1012.91 1013.36 1013.77 1014.22 1014.57 1015.03 1015.26 1015.41 1015.81 1016.04 1016.31 1016.55 1016.76 1016.98 1017.22 1017.38 1017.67 1017.94 1018.11 1018.39 1018.67 1018.79 1018.94 1019.04 1019.31 1019.41 1019.58 1019.73 1019.87 1019.85 1019.95 1019.99 1020.06 1020.14 1020.21 1020.35 1020.43 1020.36 1020.14 1020.13
1011.40 1011.71 1012.28 1012.81 1013.33 1013.75 1014.28 1014.67 1015.04 1015.41 1015.57 1015.82 1016.18 1016.49 1016.73 1016.91 1017.16 1017.39 1017.62 1017.93 1018.10 1018.50 1018.68 1018.86 1019.07 1019.25 1019.50 1019.64 1019.78 1019.93 1020.08 1020.17 1020.24 1020.29 1020.37 1020.33 1020.33 1020.34 1020.43 1020.46 1020.49 1020.42 1020.48
1011.35 1011.86 1012.15 1012.82 1013.13 1013.70 1014.04 1014.56 1015.07 1015.42 1015.62 1015.95 1016.09 1016.46 1016.88 1017.08 1017.29 1017.56 1017.74 1018.01 1018.24 1018.55 1018.86 1019.10 1019.24 1019.47 1019.71 1019.85 1019.97 1020.10 1020.25 1020.35 1020.49 1020.58 1020.65 1020.54 1020.42 1020.48 1020.59 1020.58 1020.77 1020.83 1020.88
1011.38 1011.72 1012.11 1012.48 1013.13 1013.67 1014.13 1014.57 1014.85 1015.32 1015.60 1015.93 1016.25 1016.54 1016.84 1017.11 1017.31 1017.61 1017.87 1018.08 1018.40 1018.72 1019.05 1019.18 1019.37 1019.66 1019.81 1019.90 1020.00 1020.19 1020.41 1020.60 1020.78 1020.88 1020.76 1020.78 1020.68 1020.71 1020.83 1021.05 1021.30 1021.53 1021.61
1011.67 1011.77 1012.26 1012.51 1012.95 1013.21 1013.99 1014.53 1014.96 1015.23 1015.54 1015.87 1016.26 1016.57 1016.85 1017.10 1017.55 1017.85 1018.03 1018.19 1018.50 1018.78 1019.07 1019.30 1019.54 1019.76 1019.89 1019.92 1020.06 1020.40 1020.64 1020.83 1020.97 1020.92 1020.95 1021.13 1021.05 1021.17 1021.47 1021.89 1022.09 1022.37 1022.39
1011.65 1011.90 1012.31 1012.75 1012.88 1013.32 1013.75 1014.41 1014.67 1015.08 1015.52 1015.74 1016.17 1016.49 1016.87 1017.25 1017.53 1017.81 1018.06 1018.32 1018.60 1018.90 1019.10 1019.33 1019.67 1019.88 1019.91 1020.00 1020.24 1020.56 1020.85 1021.00 1020.97 1020.88 1021.16 1021.29 1021.42 1021.57 1021.88 1022.41 1022.73 1023.09 1023.19
1011.39 1011.70 1012.27 1012.56 1013.05 1013.33 1013.70 1014.22 1014.47 1014.86 1015.35 1015.91 1016.21 1016.60 1016.89 1017.21 1017.58 1017.87 1018.17 1018.39 1018.67 1018.88 1019.17 1019.51 1019.80 1020.03 1020.08 1020.19 1020.52 1020.81 1021.03 1021.15 1020.97 1021.14 1021.46 1021.62 1021.78 1022.02 1022.34 1022.84 1023.39 1023.62 1023.62
1011.18 1011.62 1012.10 1012.49 1013.10 1013.42 1013.74 1013.94 1014.67 1014.79 1015.16 1015.60 1016.14 1016.62 1016.96 1017.33 1017.73 1018.14 1018.37 1018.56 1018.66 1018.88 1019.30 1019.67 1019.98 1020.22 1020.31 1020.50 1020.79 1021.06 1021.29 1021.32 1021.27 1021.44 1021.75 1022.06 1022.29 1022.50 1022.80 1023.19 1023.83 1023.99 1024.08
1011.07 1011.70 1012.08 1012.41 1013.05 1013.44 1013.84 1014.23 1014.42 1014.75 1015.35 1015.68 1015.93 1016.36 1016.93 1017.37 1017.71 1018.19 1018.33 1018.56 1018.79 1019.08 1019.44 1019.80 1020.17 1020.41 1020.61 1020.88 1021.07 1021.32 1021.55 1021.66 1021.55 1021.81 1022.08 1022.39 1022.63 1022.67 1023.08 1023.46 1024.18 1024.38 1024.48
1011.31 1011.71 1011.88 1012.42 1012.86 1013.40 1013.72 1014.35 1014.70 1014.73 1015.19 1015.80 1016.14 1016.35 1016.75 1017.18 1017.70 1017.98 1018.32 1018.57 1018.85 1019.28 1019.82 1020.03 1020.23 1020.52 1020.91 1021.23 1021.48 1021.62 1021.83 1021.91 1021.98 1022.20 1022.44 1022.68 1022.82 1023.05 1023.49 1023.76 1024.20 1024.76 1024.90
1011.53 1011.58 1011.72 1012.12 1012.68 1013.14 1013.72 1014.06 1014.59 1015.05 1015.20 1015.67 1016.18 1016.60 1016.82 1017.21 1017.45 1017.87 1018.21 1018.52 1018.77 1019.28 1019.90 1020.17 1020.56 1020.85 1021.27 1021.64 1021.96 1022.05 1022.12 1022.28 1022.43 1022.66 1022.68 1022.99 1023.16 1023.44 1023.81 1024.13 1024.60 1025.08 1025.25
1011.19 1011.27 1011.44 1011.88 1012.29 1012.85 1013.38 1013.92 1014.39 1014.68 1015.28 1015.51 1015.94 1016.78 1016.89 1017.28 1017.47 1017.87 1018.12 1018.65 1018.92 1019.36 1019.86 1020.23 1020.77 1021.32 1021.48 1021.74 1022.18 1022.29 1022.47 1022.67 1022.84 1023.16 1023.12 1023.32 1023.48 1023.76 1024.05 1024.43 1025.00 1025.46 1025.69
1011.62 1011.55 1011.39 1011.74 1011.90 1012.48 1012.99 1013.53 1014.08 1014.51 1014.84 1015.49 1016.01 1016.25 1017.05 1017.48 1017.83 1017.87 1018.44 1018.70 1019.14 1019.47 1019.89 1020.61 1021.29 1021.59 1021.88 1022.19 1022.59 1022.89 1023.11 1023.12 1023.35 1023.91 1024.05 1023.77 1023.90 1024.08 1024.24 1024.56 1025.28 1025.77 1026.04
1011.22 1011.26 1011.44 1011.62 1011.90 1012.00 1012.46 1013.09 1013.51 1014.02 1014.58 1014.93 1015.74 1016.14 1016.77 1017.57 1018.01 1018.12 1018.32 1018.93 1019.40 1019.94 1020.33 1020.89 1021.45 1021.99 1022.43 1022.83 1023.12 1023.46 1023.71 1023.74 1024.02 1024.52 1024.66 1024.37 1024.33 1024.33 1024.58 1024.94 1025.52 1026.00 1026.30
1010.55 1010.70 1011.03 1011.48 1011.62 1011.68 1012.13 1012.49 1013.02 1013.50 1014.03 1014.54 1015.12 1015.93 1016.25 1017.00 1017.74 1018.27 1018.69 1018.95 1019.36 1019.90 1020.56 1021.11 1021.79 1022.36 1022.92 1023.36 1023.81 1024.10 1024.45 1024.63 1024.88 1025.27 1025.40 1025.06 1024.85 1024.85 1024.93 1025.25 1025.82 1026.22 1026.64
1009.91 1010.11 1010.41 1010.85 1011.25 1011.36 1011.54 1011.92 1012.47 1012.93 1013.40 1014.11 1014.60 1015.26 1015.69 1016.49 1017.17 1017.78 1018.40 1018.92 1019.42 1019.96 1020.68 1021.29 1021.81 1022.57 1023.25 1023.76 1024.37 1024.87 1025.15 1025.41 1025.65 1026.05 1026.28 1026.20 1025.83 1025.61 1025.58 1025.78 1026.24 1026.51 1026.92
1009.17 1009.38 1009.54 1010.07 1010.64 1010.84 1011.04 1011.40 1011.85 1012.36 1012.95 1013.34 1014.01 1014.57 1015.17 1015.76 1016.70 1017.48 1018.22 1018.70 1019.32 1020.00 1020.69 1021.43 1022.29 1022.93 1023.63 1024.38 1024.92 1025.37 1025.70 1026.06 1026.31 1026.68 1026.92 1027.06 1027.07 1026.77 1026.63 1026.67 1026.82 1026.87 1027.12
1008.86 1008.66 1008.70 1008.99 1009.69 1010.21 1010.38 1010.78 1011.30 1011.73 1012.41 1012.92 1013.34 1014.06 1014.66 1015.38 1016.10 1016.95 1017.59 1018.35 1019.02 1019.82 1020.58 1021.32 1022.13 1023.08 1023.90 1024.63 1025.28 1025.93 1026.36 1026.69 1027.01 1027.36 1027.59 1027.74 1027.94 1028.01 1027.83 1027.81 1027.74 1027.69 1027.74
1008.57 1008.09 1008.14 1008.49 1008.66 1009.23 1009.67 1010.06 1010.43 1011.00 1011.50 1012.35 1012.81 1013.39 1014.05 1014.73 1015.62 1016.32 1017.11 1018.05 1018.65 1019.49 1020.46 1021.00 1022.03 1022.60 1023.84 1024.93 1025.70 1026.41 1027.02 1027.37 1027.49 1027.97 1028.28 1028.48 1028.68 1028.92 1029.17 1029.19 1028.90 1028.73 1028.62
1008.28 1007.74 1007.49 1007.60 1007.73 1008.07 1008.67 1009.36 1009.64 1010.15 1010.92 1011.13 1011.87 1012.55 1013.19 1013.86 1014.76 1015.58 1016.42 1017.52 1018.13 1019.01 1020.13 1021.08 1021.69 1022.94 1023.68 1024.72 1025.83 1026.92 1027.51 1028.04 1028.33 1028.57 1028.94 1029.25 1029.44 1029.60 1029.67 1029.83 1029.91 1029.71 1029.50
1008.68 1007.95 1007.32 1006.98 1006.82 1007.15 1007.40 1008.01 1008.22 1008.21 1009.72 1010.52 1011.19 1011.71 1012.36 1013.03 1013.84 1014.51 1015.50 1016.48 1017.58 1018.33 1019.12 1020.40 1021.36 1022.45 1024.08 1024.74 1025.41 1027.50 1028.29 1028.53 1029.01 1029.17 1029.33 1029.75 1030.10 1030.27 1030.24 1030.34 1030.36 1030.70 1030.59
1009.34 1008.70 1007.98 1007.03 1006.32 1006.23 1006.45 1006.83 1007.38 1006.80 1008.37 1009.18 1010.29 1011.09 1011.64 1012.38 1013.13 1013.45 1014.47 1015.77 1016.68 1017.88 1019.18 1019.81 1020.61 1022.05 1023.74 1024.02 1024.73 1026.24 1028.15 1029.10 1029.49 1029.60 1029.60 1029.95 1030.29 1030.53 1030.65 1030.74 1030.74 1030.81 1030.97
1009.45 1008.96 1008.33 1007.75 1007.18 1005.66 1005.68 1005.94 1006.56 1007.38 1008.30 1008.90 1009.52 1010.18 1010.79 1011.47 1012.38 1012.81 1013.57 1014.73 1015.90 1016.90 1018.24 1019.31 1019.67 1020.36 1021.89 1023.45 1023.79 1024.30 1026.44 1027.30 1028.86 1029.86 1030.10 1030.46 1030.61 1030.72 1030.85 1030.73 1030.93 1031.10 1031.34
1009.38 1008.89 1008.44 1007.77 1007.11 1005.97 1004.95 1005.23 1005.61 1006.19 1007.33 1007.87 1008.53 1009.34 1009.91 1010.22 1011.39 1011.79 1012.68 1014.16 1015.12 1015.89 1017.44 1018.66 1019.47 1019.53 1020.66 1022.42 1023.64 1023.68 1023.99 1025.04 1027.38 1029.25 1030.13 1030.47 1030.77 1030.58 1030.70 1030.90 1031.15 1031.45 1031.64
1009.06 1008.67 1008.18 1007.59 1006.85 1005.89 1004.68 1004.40 1004.87 1005.51 1006.21 1007.19 1008.32 1009.25 1010.03 1010.37 1010.88 1011.52 1012.71 1014.13 1014.83 1015.66 1016.86 1017.97 1019.08 1019.29 1020.24 1021.22 1022.29 1023.53 1024.29 1024.89 1025.51 1026.76 1028.60 1029.73 1030.33 1030.63 1030.61 1030.87 1031.21 1031.50 1031.62
1008.74 1008.27 1007.82 1007.30 1006.40 1005.73 1004.41 1003.88 1004.22 1004.86 1005.64 1006.98 1008.05 1009.10 1009.95 1010.62 1010.76 1011.39 1012.23 1013.61 1014.50 1015.43 1016.07 1017.22 1018.16 1018.94 1019.96 1021.09 1021.62 1022.76 1023.50 1024.27 1025.24 1025.91 1027.13 1028.62 1029.13 1030.14 1030.59 1030.83 1031.26 1031.48 1031.70
Wind_Speed
8 13 21 22 21 20 19 18 17 15 17 16 15 15 15 17 17 14 15 14 12 12 14 13 13 13 12 13 14 14 14 13 13 14 14 14 13 12 11 9 8 10 12
14 17 22 22 20 20 19 18 17 14 15 16 15 14 15 17 16 15 15 12 14 14 13 13 13 14 13 12 12 11 12 12 10 12 12 10 10 10 9 7 7 9 14
18 18 20 21 20 20 19 18 17 16 17 16 16 16 15 16 15 14 14 13 15 13 13 14 15 15 12 11 11 11 11 10 10 9 8 5 5 9 17 21 20 22 23
17 17 18 22 21 20 18 17 18 17 16 18 17 16 16 15 14 15 13 14 14 14 14 15 15 13 11 9 9 12 11 10 8 6 4 5 8 20 23 24 24 23 22
16 16 14 20 21 21 18 18 17 17 18 18 17 19 15 16 15 14 13 14 14 14 15 14 13 11 8 9 13 13 11 9 7 5 5 3 10 18 23 23 22 22 21
15 15 15 19 22 21 20 20 18 17 17 18 18 16 18 17 16 14 14 13 14 13 14 14 12 8 10 11 15 14 10 9 6 9 7 9 12 22 24 22 23 21 20
16 14 15 19 21 21 21 20 20 21 19 17 15 16 15 16 16 14 13 16 15 15 15 12 12 9 10 13 14 12 10 9 9 10 10 12 13 22 23 24 22 19 19
16 14 15 16 18 20 21 20 19 19 19 19 16 14 13 17 15 15 15 14 14 16 14 12 12 10 12 14 13 12 10 9 9 11 11 11 17 22 23 23 18 18 18
17 13 13 15 15 18 18 16 19 18 17 16 18 17 15 13 12 15 14 13 14 14 14 14 12 12 13 13 13 12 10 9 9 8 9 8 16 21 22 23 18 18 19
13 14 14 13 13 13 13 13 13 16 18 13 14 13 14 14 13 13 11 11 13 14 14 12 13 14 14 14 13 12 10 9 8 7 6 8 17 21 20 21 20 17 18
11 13 14 14 13 13 12 12 13 8 12 12 11 13 12 8 9 10 8 10 13 16 15 14 15 15 16 15 14 13 10 5 6 4 6 14 19 21 20 21 20 18 18
15 14 14 14 14 12 10 11 12 11 9 9 8 10 7 8 7 6 8 8 11 15 15 16 17 15 10 7 6 10 6 7 6 6 6 14 19 21 21 21 19 17 18
10 10 14 12 15 14 11 9 7 6 7 6 7 9 7 6 4 6 5 5 7 10 9 11 9 6 8 7 7 7 8 8 7 6 8 15 19 18 19 21 19 18 18
11 12 13 13 12 15 10 9 9 8 7 7 8 9 8 5 6 6 6 6 6 5 9 8 6 8 10 10 10 10 10 8 8 6 8 9 13 16 19 20 19 17 17
14 13 13 12 12 12 14 10 10 10 9 10 10 10 9 8 7 6 6 5 6 7 7 8 9 8 10 10 10 11 11 11 12 6 6 15 14 17 19 20 17 16 17
12 14 11 13 13 13 11 14 10 10 11 10 10 10 12 9 8 8 8 6 6 7 7 8 9 9 8 9 11 10 11 10 12 11 7 10 18 17 18 18 16 16 16
12 14 15 13 13 14 15 10 10 9 11 11 10 13 13 12 11 10 7 6 7 8 11 10 9 9 10 9 12 10 10 11 11 11 8 8 9 20 19 18 16 15 14
12 15 17 14 15 16 16 12 10 10 10 10 11 10 14 12 13 11 8 7 8 8 8 8 9 9 8 8 8 8 7 8 11 11 9 8 8 7 14 17 16 15 14
12 15 16 18 18 18 17 13 14 12 12 10 10 10 14 14 14 11 9 8 10 8 8 9 8 9 10 8 9 8 7 7 8 8 10 10 10 9 7 16 18 16 13
12 12 15 16 19 19 14 13 12 11 10 10 11 12 16 13 16 13 10 11 11 10 9 8 11 9 10 10 10 9 7 7 7 7 8 8 9 9 8 8 6 7 13
11 11 13 16 18 14 13 13 12 13 12 11 10 14 16 15 17 15 11 13 11 11 13 13 12 15 10 11 9 8 7 8 8 7 6 7 8 7 8 7 5 4 6
10 11 12 12 16 16 13 10 10 14 13 12 10 12 15 16 16 15 15 13 14 11 12 15 15 11 5 8 6 5 5 3 5 5 6 5 6 5 6 6 7 8 6
10 10 12 13 14 17 17 12 9 6 3 5 10 10 11 15 17 17 17 15 14 13 12 14 15 13 11 7 12 5 6 4 6 2 4 3 3 3 4 6 7 6 6
12 9 11 13 14 13 20 13 12 11 10 9 10 9 11 15 15 13 15 14 15 12 14 13 11 10 12 11 5 2 3 8 5 5 3 3 2 3 4 4 5 5 5
11 10 10 13 14 14 16 18 13 16 11 8 6 9 7 7 11 12 12 12 12 10 12 14 12 12 10 9 6 4 4 3 5 4 5 4 3 5 4 4 4 4 4
11 10 9 12 14 13 14 18 16 18 10 9 10 10 8 7 10 14 16 13 13 11 14 13 11 13 10 9 8 7 7 5 5 4 4 4 5 5 5 4 4 3 3
Wind_Direction
182 160 150 148 149 147 148 150 153 152 144 144 140 127 126 124 120 112 111 122 113 106 112 116 118 111 100 89 82 83 84 87 88 92 94 96 98 96 91 83 75 77 66
155 158 149 149 152 151 151 150 154 157 155 149 145 144 132 128 129 126 121 130 129 125 125 122 121 116 112 103 97 93 92 90 81 75 71 87 101 95 90 89 89 77 80
154 155 148 151 155 151 150 149 155 160 157 162 155 152 149 142 137 135 136 142 128 133 127 127 130 121 116 113 110 107 106 104 85 73 68 76 80 96 88 81 86 79 73
157 155 157 151 159 153 156 156 151 167 161 160 155 156 155 159 152 149 151 134 133 129 129 132 126 124 126 128 126 113 110 101 89 77 86 65 101 94 83 75 68 62 59
163 159 160 153 156 155 162 157 160 163 167 161 157 158 158 152 151 156 149 139 134 144 137 133 130 131 132 122 117 112 106 92 83 109 117 97 102 89 83 76 68 62 56
163 163 160 162 157 156 161 167 173 157 163 167 163 160 160 160 157 159 143 143 146 142 137 138 131 124 105 105 109 111 105 94 89 99 114 109 99 95 86 77 69 66 64
164 165 168 163 166 162 162 176 164 169 172 165 163 159 176 168 156 139 154 158 158 149 139 136 130 113 95 104 102 107 103 100 99 95 97 103 102 93 89 81 72 68 67
168 164 170 165 168 167 168 177 174 170 171 169 166 164 156 149 151 153 165 169 162 144 135 132 122 116 114 112 112 106 104 102 104 103 100 102 104 97 91 87 81 76 69
173 167 173 172 172 168 171 183 175 169 178 170 167 168 155 147 140 178 177 172 150 137 133 128 124 120 119 115 109 104 94 87 107 104 104 106 107 103 96 94 81 77 76
179 175 175 176 173 176 171 178 175 181 179 180 174 156 153 145 178 168 164 143 140 125 121 129 129 125 118 106 100 92 84 82 93 88 98 108 106 101 100 95 91 81 80
190 185 180 177 177 174 176 176 171 189 177 176 165 155 153 170 175 160 139 162 138 126 128 129 126 116 112 94 83 78 73 78 66 67 108 111 109 105 100 93 90 85 82
201 194 187 181 179 174 176 176 179 179 184 188 167 168 163 180 160 162 152 151 135 130 132 133 130 123 115 112 99 85 91 90 78 58 105 115 111 103 100 94 88 89 87
224 210 199 186 184 180 181 176 180 181 173 177 169 163 157 168 160 153 152 140 134 130 133 126 127 111 104 104 93 88 85 81 79 52 20 104 106 106 102 98 97 93 86
218 214 208 195 194 184 183 183 178 179 179 176 178 162 156 169 176 163 155 143 131 134 130 127 120 111 101 97 98 92 85 89 84 65 38 55 105 103 102 101 99 91 86
211 213 210 210 197 196 190 182 181 184 180 182 175 175 166 169 176 168 163 149 139 139 139 128 122 115 106 100 90 89 82 81 79 60 49 40 80 97 99 97 98 92 82
208 207 204 204 209 198 197 184 185 185 182 178 182 178 176 172 171 170 167 161 137 144 135 133 131 123 110 106 92 84 81 80 76 66 54 41 55 79 87 89 87 86 84
215 203 200 200 201 209 198 194 187 187 187 180 181 180 178 174 171 166 166 163 141 138 131 125 119 115 110 101 95 86 83 80 78 72 63 58 49 57 70 78 79 77 78
233 206 202 199 198 209 203 197 194 185 184 189 181 182 177 174 169 167 164 165 143 139 137 132 131 118 107 105 102 90 82 80 83 78 70 68 63 54 64 72 73 73 68
252 222 208 200 201 203 204 201 195 191 190 191 183 179 181 172 170 167 166 154 146 140 142 140 133 131 121 114 102 89 78 75 82 84 81 76 75 70 67 64 66 65 65
285 235 219 206 205 202 198 204 200 190 188 186 186 188 181 178 173 169 166 162 154 146 145 144 132 124 125 122 105 86 79 75 79 82 84 83 81 81 80 73 54 54 62
344 324 232 222 212 206 197 195 198 188 188 188 190 189 182 182 179 172 166 157 160 161 157 151 136 132 127 129 110 88 68 77 77 82 91 89 85 83 87 82 77 74 57
328 328 333 268 224 214 205 194 193 193 198 197 190 186 185 183 184 175 167 171 166 152 156 153 148 139 127 170 128 118 144 111 72 81 92 100 102 100 96 91 90 79 71
317 322 319 313 308 231 217 202 198 174 102 164 186 184 185 182 187 178 173 167 165 154 161 168 162 156 153 183 162 140 153 169 138 144 80 85 110 116 135 111 100 91 77
310 301 306 305 297 287 227 210 181 178 181 194 186 184 181 176 183 177 165 164 164 155 165 171 177 154 154 167 128 106 86 131 159 156 177 159 154 153 148 134 115 90 81
298 294 296 298 297 290 248 218 192 193 190 178 159 157 162 162 168 146 149 166 158 156 157 163 164 152 158 157 155 148 100 84 114 149 160 162 178 213 180 152 125 123 106
294 293 290 297 293 288 273 230 200 199 180 149 158 163 162 161 153 156 151 160 156 150 152 156 156 148 147 151 134 147 156 162 163 157 128 149 170 178 177 149 156 133 107